TITAN 3C TRANSTAGE DEB, 35503

Orbit data source: Space-Track

TITAN 3C TRANSTAGE DEB, 35503 is space debris in HEO originally from a launch on Tue, 21 Dec 1965 UTC launched from the Air Force Eastern Test Range (AFETR). Debris objects in space refer to the collection of defunct objects orbiting the Earth. Examples of debris include non-operational satellites, rocket bodies, and fragments generated from explosions, collisions, or faulty payload assembly.

Loading next visibility...
Identifier
35503, 1965-108DJ
Orbit
HEO
Country
Flag of USUS
Related business
Manufacturer
Unknown
Mission
Spacecraft
Bus & Motor
Unknown
Mass
Unknown
Launch date (UTC)
1965-12-21 (60 years ago)
Launch vehicle
Unknown
Launch site
Air Force Eastern Test Range (AFETR)
Object type
Payload
Rocket body
Debris
Shape & HBR
Unknown shape, 1.1 m
Radar Cross Section
Small (<0.1 m²)

Expand to show TLE details & history
Last TLE update: 3 days ago

TLE from 3 days ago
0 TITAN 3C TRANSTAGE DEB
1 35503U 65108DJ  26130.76561788 -.00000289  00000-0 -24132-2 0  9991
2 35503  26.5387 312.4560 6804047  83.2349 282.4489  2.60470124206245
Epoch: 2026-05-10T18:22Z
TLE epoch observation values (Epoch: 2026-05-10T18:22:29.384Z)
Latitude
-23.86828°
Longitude
105.96533°
Altitude
21,975.041 km
Speed
3.202 km/s
True Right ascension
16h 40m 36s
True Declination
-23° 50' 11"
Sunlit
Object was in daylight at epoch
Visualization orbit readout
Latitude
Unknown
Longitude
Unknown
Altitude
Unknown
Speed
Unknown
Apparent Right ascension
Unknown
Apparent Declination
Unknown
Sunlit
N/A
Visualization observer readout
Local Sidereal Time
03:56:15
Azimuth
Unknown
Elevation
Unknown
Doppler factor
Unknown
Orbital elements
Apogee altitude
31,123.115 km
Perigee altitude
754.207 km
Semi-major axis
22,316.798 km
Eccentricity
0.6804
Inclination
26.5387°
RAAN
312.456°
Arg. of periapsis
83.2349°
True anomaly
212.00292°
Mean anomaly
282.4489°
Eccentric anomaly
246.6558°
Mean motion
0.65102 °/min
Orbital period
552.98 mins
BSTAR
-0.0024132
Loading maneuver chart data...
Computing Atmospheric mass density...

Documentation

Showing up to 5 results
|